Previsão horária em Plonne

Hoje, 1 Março, Segunda-feira

Tempo Temperatura Precipitação Vento Pressão Humidade
00:00 0°C° 0 mm 3 m/s 766 mmHg 95%
01:00 -1°C° 0 mm 2 m/s 766 mmHg 95%
02:00 -1°C° 0 mm 2 m/s 766 mmHg 94%
03:00 -1°C° 0 mm 2 m/s 766 mmHg 94%
04:00 +1°C° 0 mm 1 m/s 766 mmHg 93%
05:00 +2°C° 0 mm 1 m/s 766 mmHg 93%
06:00 +1°C° 0 mm 2 m/s 766 mmHg 93%
07:00 +1°C° 0 mm 2 m/s 766 mmHg 93%
08:00 +2°C° 0 mm 2 m/s 766 mmHg 88%
09:00 +3°C° 0 mm 2 m/s 766 mmHg 83%
10:00 +5°C° 0 mm 2 m/s 767 mmHg 78%
11:00 +5°C° 0 mm 3 m/s 767 mmHg 75%
12:00 +7°C° 0 mm 3 m/s 767 mmHg 73%
13:00 +8°C° 0 mm 3 m/s 767 mmHg 70%
14:00 +8°C° 0 mm 3 m/s 766 mmHg 71%
15:00 +7°C° 0 mm 4 m/s 766 mmHg 73%
16:00 +7°C° 0 mm 4 m/s 766 mmHg 74%
17:00 +6°C° 0 mm 4 m/s 766 mmHg 79%
18:00 +4°C° 0 mm 3 m/s 766 mmHg 84%
19:00 +3°C° 0 mm 3 m/s 766 mmHg 89%
20:00 +3°C° 0 mm 3 m/s 765 mmHg 89%
21:00 +2°C° 0 mm 3 m/s 765 mmHg 90%
22:00 +2°C° 0 mm 3 m/s 765 mmHg 91%
23:00 +1°C° 0 mm 4 m/s 765 mmHg 91%

Amanhã, 2 Março, Terça-feira

Tempo Temperatura Precipitação Vento Pressão Humidade
00:00 +1°C° 0 mm 4 m/s 765 mmHg 91%
01:00 0°C° 0 mm 4 m/s 765 mmHg 92%
02:00 0°C° 0 mm 4 m/s 765 mmHg 92%
03:00 0°C° 0 mm 4 m/s 764 mmHg 92%
04:00 -1°C° 0 mm 4 m/s 764 mmHg 92%
05:00 -1°C° 0 mm 4 m/s 764 mmHg 92%
06:00 -1°C° 0 mm 4 m/s 764 mmHg 91%
07:00 -1°C° 0 mm 4 m/s 764 mmHg 91%
08:00 +1°C° 0 mm 5 m/s 764 mmHg 85%
09:00 +2°C° 0 mm 5 m/s 764 mmHg 80%
10:00 +5°C° 0 mm 5 m/s 764 mmHg 74%
11:00 +6°C° 0 mm 5 m/s 764 mmHg 69%
12:00 +7°C° 0 mm 5 m/s 764 mmHg 65%
13:00 +8°C° 0 mm 5 m/s 765 mmHg 61%
14:00 +8°C° 0 mm 5 m/s 764 mmHg 63%
15:00 +8°C° 0 mm 4 m/s 764 mmHg 65%
16:00 +9°C° 0 mm 3 m/s 764 mmHg 67%
17:00 +8°C° 0 mm 3 m/s 764 mmHg 74%
18:00 +5°C° 0 mm 3 m/s 765 mmHg 80%
19:00 +5°C° 0 mm 2 m/s 765 mmHg 87%
20:00 +4°C° 0 mm 2 m/s 765 mmHg 89%
21:00 +3°C° 0 mm 2 m/s 765 mmHg 91%
22:00 +3°C° 0 mm 2 m/s 766 mmHg 92%
23:00 +2°C° 0 mm 2 m/s 766 mmHg 91%

Depois de amanhã, 3 Março, Quarta-feira

Tempo Temperatura Precipitação Vento Pressão Humidade
00:00 +3°C° 0 mm 1 m/s 766 mmHg 89%
01:00 +2°C° 0 mm 1 m/s 766 mmHg 88%
02:00 +2°C° 0 mm 1 m/s 766 mmHg 85%
03:00 +2°C° 0 mm 1 m/s 765 mmHg 82%
04:00 +2°C° 0 mm 1 m/s 765 mmHg 79%
05:00 +2°C° 0 mm 1 m/s 765 mmHg 78%
06:00 +2°C° 0 mm 1 m/s 765 mmHg 77%
07:00 +2°C° 0 mm 1 m/s 765 mmHg 76%
08:00 +2°C° 0 mm 2 m/s 764 mmHg 71%
09:00 +4°C° 0 mm 2 m/s 764 mmHg 67%
10:00 +5°C° 0 mm 2 m/s 764 mmHg 62%
11:00 +6°C° 0 mm 2 m/s 763 mmHg 63%
12:00 +7°C° 0 mm 3 m/s 763 mmHg 64%
13:00 +8°C° 0 mm 3 m/s 762 mmHg 65%
14:00 +8°C° 0 mm 3 m/s 761 mmHg 66%
15:00 +9°C° 0 mm 3 m/s 761 mmHg 68%
16:00 +9°C° 0 mm 2 m/s 760 mmHg 69%
17:00 +7°C° 0 mm 2 m/s 759 mmHg 73%
18:00 +5°C° 0 mm 3 m/s 759 mmHg 77%
19:00 +4°C° 0 mm 3 m/s 758 mmHg 81%
20:00 +3°C° 0 mm 3 m/s 758 mmHg 81%
21:00 +3°C° 0 mm 3 m/s 757 mmHg 81%
22:00 +3°C° 0 mm 3 m/s 756 mmHg 82%
23:00 +2°C° 0 mm 3 m/s 756 mmHg 84%

4 Março, Quinta-feira

Tempo Temperatura Precipitação Vento Pressão Humidade
00:00 +2°C° 0 mm 3 m/s 755 mmHg 86%
01:00 +2°C° 0 mm 3 m/s 754 mmHg 88%
02:00 +1°C° 0 mm 3 m/s 754 mmHg 89%
03:00 +1°C° 0 mm 3 m/s 753 mmHg 91%
04:00 +1°C° 0 mm 3 m/s 753 mmHg 92%
05:00 +1°C° 0 mm 3 m/s 752 mmHg 93%
06:00 0°C° 0 mm 3 m/s 752 mmHg 94%
07:00 0°C° 0 mm 3 m/s 751 mmHg 96%
08:00 +1°C° 0 mm 4 m/s 751 mmHg 90%
09:00 +3°C° 0 mm 4 m/s 751 mmHg 85%
10:00 +4°C° 0 mm 4 m/s 751 mmHg 80%
11:00 +5°C° 0 mm 4 m/s 751 mmHg 75%
12:00 +6°C° 0 mm 4 m/s 751 mmHg 70%
13:00 +7°C° 0 mm 4 m/s 751 mmHg 65%
14:00 +6°C° 0 mm 4 m/s 750 mmHg 67%
15:00 +6°C° 0 mm 4 m/s 750 mmHg 68%
16:00 +5°C° 0 mm 4 m/s 750 mmHg 70%
17:00 +4°C° 0 mm 3 m/s 750 mmHg 74%
18:00 +3°C° 0 mm 3 m/s 750 mmHg 79%
19:00 +3°C° 0 mm 3 m/s 750 mmHg 84%
20:00 +2°C° 0 mm 3 m/s 750 mmHg 85%
21:00 0°C° 0 mm 4 m/s 750 mmHg 85%
22:00 -1°C° 0 mm 4 m/s 750 mmHg 86%
23:00 -1°C° 0 mm 4 m/s 750 mmHg 84%

5 Março, Sexta-feira

Tempo Temperatura Precipitação Vento Pressão Humidade
00:00 -2°C° 0 mm 4 m/s 750 mmHg 82%
01:00 -2°C° 0 mm 4 m/s 750 mmHg 79%
02:00 -2°C° 0.1 mm 4 m/s 750 mmHg 84%
03:00 -3°C° 0.1 mm 4 m/s 750 mmHg 88%
04:00 -4°C° 0.1 mm 5 m/s 750 mmHg 92%
05:00 -4°C° 0.2 mm 5 m/s 750 mmHg 87%
06:00 -4°C° 0.2 mm 5 m/s 750 mmHg 81%
07:00 -3°C° 0.2 mm 4 m/s 751 mmHg 76%
08:00 -2°C° 0 mm 5 m/s 751 mmHg 68%
09:00 -2°C° 0 mm 5 m/s 752 mmHg 60%
10:00 -1°C° 0 mm 5 m/s 752 mmHg 52%
11:00 0°C° 0 mm 5 m/s 752 mmHg 49%
12:00 0°C° 0 mm 5 m/s 753 mmHg 45%
13:00 +1°C° 0 mm 5 m/s 753 mmHg 41%
14:00 -1°C° 0.1 mm 6 m/s 753 mmHg 45%
15:00 -1°C° 0.1 mm 6 m/s 754 mmHg 48%
16:00 -2°C° 0.1 mm 7 m/s 754 mmHg 52%
17:00 -2°C° 0 mm 5 m/s 755 mmHg 56%
18:00 -3°C° 0 mm 4 m/s 755 mmHg 60%
19:00 -4°C° 0 mm 3 m/s 756 mmHg 64%
20:00 -4°C° 0 mm 3 m/s 757 mmHg 65%
21:00 -4°C° 0 mm 3 m/s 757 mmHg 67%
22:00 -4°C° 0 mm 3 m/s 758 mmHg 68%
23:00 -4°C° 0 mm 4 m/s 758 mmHg 68%

6 Março, Sábado

Tempo Temperatura Precipitação Vento Pressão Humidade
00:00 -4°C° 0 mm 4 m/s 759 mmHg 68%
01:00 -4°C° 0 mm 4 m/s 759 mmHg 67%
02:00 -4°C° 0 mm 4 m/s 760 mmHg 66%
03:00 -4°C° 0 mm 4 m/s 760 mmHg 65%
04:00 -5°C° 0 mm 5 m/s 760 mmHg 64%
05:00 -4°C° 0 mm 4 m/s 761 mmHg 65%
06:00 -4°C° 0 mm 4 m/s 761 mmHg 66%
07:00 -4°C° 0 mm 4 m/s 762 mmHg 66%
08:00 -3°C° 0 mm 4 m/s 762 mmHg 61%
09:00 -2°C° 0 mm 4 m/s 763 mmHg 56%
10:00 -1°C° 0 mm 4 m/s 763 mmHg 50%
11:00 -1°C° 0.1 mm 4 m/s 763 mmHg 48%
12:00 0°C° 0.1 mm 4 m/s 764 mmHg 45%
13:00 0°C° 0.1 mm 5 m/s 764 mmHg 42%
14:00 0°C° 0 mm 5 m/s 764 mmHg 42%
15:00 0°C° 0 mm 4 m/s 764 mmHg 42%
16:00 -1°C° 0 mm 4 m/s 764 mmHg 42%
17:00 -2°C° 0 mm 4 m/s 764 mmHg 47%
18:00 -2°C° 0 mm 3 m/s 764 mmHg 53%
19:00 -3°C° 0 mm 2 m/s 764 mmHg 58%
20:00 -3°C° 0 mm 2 m/s 764 mmHg 59%
21:00 -3°C° 0 mm 2 m/s 765 mmHg 61%
22:00 -4°C° 0 mm 3 m/s 765 mmHg 62%
23:00 -4°C° 0 mm 3 m/s 765 mmHg 62%
Mostrar mais

Necessitamos do seu Consentimento

A Meteoprog e os seus Fornecedores de Serviços podem armazenar e aceder a dados pessoais como cookies, identificadores do dispositivo ou outras tecnologias semelhantes existentes no seu dispositivo e processar estes dados para personalizar conteúdos e anúncios, assim como funcionalidades nas redes sociais e análise de tráfego.

  • Armazenar e/ou aceder a informações no seu dispositivo

    Os cookies, identificadores do dispositivo ou outras informações podem ser armazenados ou acedidos no seu dispositivo, para os fins acima indicados.

  • Anúncios e conteúdos personalizados, medição de anúncios e conteúdos, dados sobre o público-alvo e desenvolvimento de produtos

    Os anúncios e os conteúdos podem ser personalizados com base num perfil. Podem ser adicionados dados adicionais para uma maior personalização dos anúncios e dos conteúdos. A eficácia dos anúncios e dos conteúdos pode ser medida. Podem ser obtidas informações sobre o público que visualizou os anúncios e os conteúdos. Estes dados podem ser usados para desenvolver ou melhorar sistemas, softwares ou a experiência do utilizador.

Ao clicar em "Eu concordo”, permitirá o uso de cookies, identificadores do dispositivo e web beacons mencionados ou outras tecnologias semelhantes. As configurações do navegador do seu dispositivo podem ser alteradas.

Para certos fins, podem ser invocados interesses legítimos ao invés de consentimento. Pode ler mais informação sobre este assunto na nossa Política de Privacidade e Cookies.